Location: Cambroso
(45.2833°N, 12.0850°E)
Time: 16:22:25
(UTC+00:00)

ARGOS - Pass Details

Date: 21 January 2021
Orbit: 821 x 834 km, 98.4° (Epoch: 26 February)

Event Time Altitude Azimuth Distance (km) Brightness Sun altitude
Rises 17:11:10 0° 133° (SE) 3,344 6.0 -11.9°
Reaches altitude 10° 17:13:45 10° 123° (ESE) 2,416 5.2 -12.3°
Maximum altitude 17:18:19 30° 64° (ENE) 1,451 3.9 -13.1°
Drops below altitude 10° 17:22:55 10° 6° (N) 2,435 5.4 -13.9°
Sets 17:25:32 0° 356° (N) 3,375 6.2 -14.3°
